User: anonymous   Login
Location: Unspecified
(0.0000°N, 0.0000°E)
Time: 23:03:23
(UTC+00:00)
Language:

OBJECT X - Orbit

View from above orbital plane
View from above orbital plane
View from above satellite
View from above satellite

Ground track
Ground track

The orbit data is extracted from the following two-line orbital elements,

1 43897U 18111X   19048.82205489  .00000654  00000-0  30017-4 0  9993
2 43897  97.2983 317.2896 0024704  64.6491 295.7301 15.23584491  8034
Epoch (UTC): 17 February 2019 19:43:45
Eccentricity: 0.0024704
inclination: 97.2983°
perigee height: 478 km
apogee height: 512 km
right ascension of ascending node: 317.2896°
argument of perigee: 64.6491°
revolutions per day: 15.23584491
mean anomaly at epoch: 295.7301°
orbit number at epoch: 803

The dashed part of the orbit path shows where the satellite is in the earth's shadow,  

DLR